This is the latest recevied weather packets stored in our database for station/object KK7ISX. If no packets are shown the sender has not sent any weather packets the latest 10 day(s).
| Time | Temp. | Humidity | Pressure | Rain* | Wind** | Luminosity | Snow |
|---|---|---|---|---|---|---|---|
| 1777258990 | 11.11° C | 45% | 1008.9 hPa | 0 mm | - | 0 W/m² | - |
| 1777258687 | 11.11° C | 45% | 1008.6 hPa | 0 mm | - | 0 W/m² | - |
| 1777258382 | 11.67° C | 44% | 1008.5 hPa | 0 mm | - | 1 W/m² | - |
| 1777258080 | 11.67° C | 44% | 1008.4 hPa | 0 mm | - | 1 W/m² | - |
| 1777257777 | 11.67° C | 44% | 1008.5 hPa | 0 mm | - | 2 W/m² | - |
| 1777257474 | 11.67° C | 44% | 1008.5 hPa | 0 mm | - | 4 W/m² | - |
| 1777257171 | 11.67° C | 44% | 1008.2 hPa | 0 mm | - | 6 W/m² | - |
| 1777256868 | 11.67° C | 43% | 1008.2 hPa | 0 mm | - | 8 W/m² | - |
| 1777256564 | 11.67° C | 42% | 1008.2 hPa | 0 mm | - | 11 W/m² | - |
| 1777256259 | 11.67° C | 43% | 1008.1 hPa | 0 mm | - | 13 W/m² | - |
| 1777255956 | 11.67° C | 43% | 1008.1 hPa | 0 mm | - | 15 W/m² | - |
| 1777255652 | 11.67° C | 43% | 1007.9 hPa | 0 mm | - | 18 W/m² | - |
| 1777255348 | 11.67° C | 44% | 1007.9 hPa | 0 mm | - | 21 W/m² | - |
| 1777255043 | 11.67° C | 44% | 1008 hPa | 0 mm | - | 23 W/m² | - |
| 1777254741 | 11.67° C | 43% | 1007.9 hPa | 0 mm | - | 26 W/m² | - |
| 1777254438 | 12.22° C | 42% | 1007.8 hPa | 0 mm | - | 27 W/m² | - |
| 1777254134 | 12.22° C | 42% | 1007.7 hPa | 0 mm | - | 28 W/m² | - |
| 1777253830 | 12.22° C | 43% | 1007.9 hPa | 0 mm | - | 30 W/m² | - |
| 1777253527 | 12.22° C | 42% | 1007.7 hPa | 0 mm | - | 34 W/m² | - |
| 1777253225 | 12.22° C | 42% | 1008 hPa | 0 mm | - | 36 W/m² | - |
| 1777252922 | 12.22° C | 42% | 1007.7 hPa | 0 mm | - | 38 W/m² | - |
| 1777252620 | 12.78° C | 41% | 1007.7 hPa | 0 mm | - | 39 W/m² | - |
| 1777252316 | 12.78° C | 40% | 1007.4 hPa | 0 mm | - | 46 W/m² | - |
| 1777252014 | 12.78° C | 38% | 1007.4 hPa | 0 mm | - | 115 W/m² | - |
| 1777251710 | 12.78° C | 37% | 1007.3 hPa | 0 mm | - | 83 W/m² | - |
* Rain latest hour (hover to see other rain measurements)
** Current wind speed in m/s (hover to see current wind gust speed)